Location: Sungai Bunut
(2.6333°N, 113.7333°E)
Time: 16:26:25
(UTC+00:00)

Altair - Pass Details

Date: 12 December 2023
Orbit: 1501 x 1682 km, 47.2° (Epoch: 24 February)

Event Time Altitude Azimuth Distance (km) Brightness Sun altitude
Rises 06:45:19 0° 329° (NNW) 4,636 10.0 46.0°
Reaches altitude 10° 06:48:26 10° 333° (NNW) 3,647 9.5 45.4°
Maximum altitude 06:57:20 56° 50° (NE) 1,734 8.0 43.6°
Drops below altitude 10° 07:06:18 10° 126° (SE) 3,680 9.4 41.7°
Sets 07:09:27 0° 130° (SE) 4,681 9.9 41.1°
